QPF
0.00 0.01 0.02 0.03 0.05 0.07 0.04 0.01 0.01 0.00 0.00 0.00 0.00 0.00 0.00 0.00 0.01 0.02 0.01 0.00 0.00 0.00 0.00 0.00 0.00 0.00 0.00 0.00 0.00 0.01 0.01 0.01 0.01 0.01 0.01 0.01 0.02 0.02 0.02 0.02 0.02 0.02 0.02 0.02 0.02 0.01 0.01 0.01 0.01
0.00 0.01 0.02 0.04 0.07 0.05 0.04 0.03 0.01 0.00 0.00 0.00 0.00 0.00 0.00 0.00 0.00 0.00 0.00 0.00 0.00 0.00 0.00 0.00 0.00 0.00 0.00 0.00 0.00 0.00 0.00 0.00 0.01 0.01 0.01 0.01 0.01 0.01 0.02 0.02 0.02 0.03 0.03 0.02 0.02 0.02 0.01 0.01 0.01
0.01 0.01 0.03 0.06 0.08 0.05 0.02 0.02 0.01 0.00 0.00 0.00 0.00 0.00 0.00 0.00 0.00 0.00 0.00 0.00 0.00 0.00 0.00 0.00 0.00 0.00 0.00 0.00 0.00 0.00 0.00 0.00 0.00 0.01 0.01 0.01 0.01 0.01 0.02 0.03 0.03 0.03 0.03 0.03 0.03 0.03 0.02 0.01 0.01
0.02 0.03 0.05 0.07 0.06 0.03 0.02 0.01 0.00 0.00 0.00 0.00 0.00 0.00 0.00 0.00 0.00 0.00 0.00 0.00 0.00 0.00 0.00 0.00 0.00 0.00 0.00 0.00 0.00 0.00 0.00 0.00 0.00 0.01 0.02 0.01 0.01 0.01 0.02 0.03 0.03 0.03 0.03 0.03 0.03 0.03 0.03 0.03 0.03
0.01 0.03 0.05 0.04 0.03 0.03 0.02 0.01 0.00 0.00 0.00 0.00 0.00 0.00 0.00 0.00 0.00 0.00 0.00 0.00 0.00 0.00 0.00 0.00 0.00 0.00 0.00 0.00 0.00 0.00 0.00 0.00 0.01 0.01 0.04 0.02 0.01 0.02 0.02 0.03 0.03 0.02 0.02 0.02 0.03 0.03 0.02 0.03 0.05
0.01 0.01 0.02 0.02 0.02 0.03 0.02 0.01 0.01 0.00 0.00 0.00 0.01 0.01 0.00 0.00 0.00 0.00 0.00 0.00 0.00 0.00 0.00 0.00 0.00 0.00 0.00 0.00 0.00 0.00 0.00 0.00 0.00 0.01 0.01 0.01 0.00 0.01 0.01 0.01 0.02 0.01 0.01 0.02 0.02 0.02 0.02 0.03 0.05
0.00 0.01 0.01 0.01 0.02 0.04 0.03 0.02 0.01 0.00 0.00 0.00 0.01 0.01 0.00 0.00 0.00 0.00 0.00 0.00 0.00 0.00 0.00 0.00 0.00 0.00 0.00 0.00 0.00 0.00 0.00 0.00 0.00 0.00 0.00 0.00 0.00 0.00 0.00 0.02 0.01 0.01 0.01 0.01 0.01 0.01 0.02 0.02 0.04
0.01 0.01 0.01 0.01 0.03 0.04 0.02 0.01 0.01 0.00 0.00 0.01 0.01 0.01 0.00 0.00 0.00 0.00 0.00 0.00 0.00 0.00 0.00 0.00 0.00 0.00 0.00 0.00 0.00 0.00 0.00 0.00 0.00 0.00 0.00 0.01 0.01 0.01 0.01 0.02 0.01 0.01 0.01 0.01 0.01 0.01 0.02 0.02 0.03
0.00 0.01 0.02 0.01 0.03 0.03 0.01 0.01 0.00 0.00 0.00 0.01 0.03 0.01 0.00 0.00 0.00 0.00 0.00 0.00 0.00 0.00 0.00 0.02 0.00 0.00 0.00 0.00 0.00 0.00 0.00 0.00 0.00 0.00 0.01 0.01 0.01 0.02 0.02 0.01 0.01 0.01 0.02 0.02 0.01 0.01 0.02 0.02 0.03
0.01 0.01 0.01 0.01 0.02 0.01 0.01 0.01 0.00 0.00 0.00 0.01 0.01 0.00 0.00 0.00 0.00 0.00 0.00 0.00 0.00 0.00 0.00 0.01 0.00 0.00 0.00 0.00 0.00 0.01 0.02 0.01 0.01 0.00 0.01 0.01 0.01 0.01 0.02 0.02 0.01 0.01 0.02 0.02 0.03 0.02 0.02 0.03 0.03
0.01 0.01 0.01 0.01 0.01 0.01 0.01 0.00 0.00 0.00 0.00 0.01 0.01 0.00 0.00 0.00 0.00 0.00 0.00 0.00 0.00 0.01 0.01 0.01 0.00 0.00 0.00 0.01 0.01 0.01 0.04 0.02 0.01 0.01 0.01 0.01 0.01 0.01 0.01 0.01 0.01 0.01 0.02 0.02 0.02 0.04 0.04 0.04 0.03
0.01 0.00 0.00 0.00 0.00 0.00 0.00 0.00 0.00 0.00 0.01 0.01 0.02 0.01 0.00 0.00 0.00 0.00 0.00 0.00 0.01 0.02 0.01 0.01 0.00 0.00 0.01 0.01 0.01 0.01 0.02 0.03 0.04 0.01 0.02 0.01 0.01 0.01 0.01 0.01 0.01 0.01 0.01 0.01 0.01 0.03 0.03 0.03 0.03
0.01 0.01 0.00 0.00 0.00 0.00 0.00 0.00 0.00 0.00 0.00 0.01 0.01 0.01 0.00 0.00 0.01 0.01 0.00 0.01 0.03 0.05 0.02 0.01 0.00 0.01 0.01 0.01 0.01 0.01 0.01 0.01 0.02 0.05 0.06 0.02 0.01 0.01 0.01 0.01 0.01 0.01 0.01 0.01 0.01 0.02 0.02 0.03 0.03
0.00 0.00 0.00 0.00 0.00 0.00 0.00 0.00 0.00 0.00 0.00 0.01 0.01 0.01 0.01 0.01 0.01 0.00 0.00 0.00 0.01 0.02 0.01 0.00 0.00 0.01 0.01 0.01 0.01 0.01 0.01 0.01 0.02 0.02 0.04 0.03 0.03 0.02 0.01 0.01 0.01 0.01 0.01 0.01 0.01 0.03 0.03 0.03 0.02
0.00 0.00 0.01 0.01 0.01 0.00 0.00 0.00 0.00 0.00 0.00 0.01 0.01 0.02 0.01 0.01 0.02 0.01 0.01 0.01 0.00 0.00 0.00 0.00 0.01 0.01 0.02 0.02 0.02 0.01 0.01 0.01 0.02 0.02 0.02 0.02 0.02 0.02 0.02 0.02 0.01 0.01 0.01 0.01 0.02 0.03 0.03 0.02 0.01
0.01 0.01 0.01 0.01 0.01 0.01 0.01 0.01 0.01 0.01 0.01 0.01 0.01 0.02 0.03 0.03 0.01 0.01 0.01 0.01 0.01 0.01 0.01 0.01 0.01 0.01 0.01 0.01 0.01 0.01 0.01 0.01 0.02 0.02 0.02 0.01 0.01 0.02 0.01 0.02 0.02 0.01 0.01 0.02 0.02 0.03 0.02 0.02 0.02
0.02 0.01 0.02 0.02 0.02 0.02 0.02 0.02 0.01 0.00 0.00 0.01 0.02 0.04 0.05 0.04 0.03 0.02 0.02 0.01 0.03 0.03 0.02 0.01 0.01 0.01 0.01 0.01 0.01 0.02 0.01 0.02 0.02 0.01 0.01 0.01 0.02 0.02 0.02 0.02 0.02 0.02 0.03 0.03 0.02 0.03 0.03 0.02 0.02
0.01 0.01 0.01 0.02 0.02 0.02 0.01 0.01 0.01 0.01 0.01 0.01 0.01 0.02 0.02 0.03 0.04 0.06 0.06 0.04 0.04 0.03 0.02 0.02 0.02 0.02 0.01 0.01 0.01 0.01 0.01 0.02 0.02 0.02 0.01 0.02 0.02 0.02 0.02 0.02 0.02 0.02 0.03 0.03 0.03 0.03 0.03 0.02 0.02
0.01 0.02 0.02 0.02 0.01 0.01 0.01 0.01 0.00 0.00 0.01 0.01 0.01 0.03 0.03 0.03 0.04 0.04 0.07 0.07 0.05 0.04 0.02 0.02 0.01 0.02 0.01 0.01 0.02 0.02 0.02 0.02 0.02 0.03 0.03 0.03 0.02 0.02 0.02 0.02 0.01 0.01 0.02 0.03 0.03 0.04 0.03 0.02 0.02
0.01 0.01 0.01 0.02 0.01 0.01 0.01 0.01 0.01 0.01 0.01 0.02 0.02 0.02 0.03 0.03 0.03 0.03 0.04 0.06 0.05 0.02 0.02 0.01 0.01 0.02 0.03 0.03 0.03 0.03 0.03 0.02 0.01 0.02 0.02 0.02 0.02 0.02 0.02 0.02 0.01 0.01 0.02 0.03 0.04 0.07 0.06 0.05 0.04
0.01 0.01 0.01 0.02 0.01 0.01 0.01 0.01 0.01 0.02 0.02 0.03 0.03 0.02 0.02 0.06 0.06 0.03 0.03 0.03 0.04 0.03 0.03 0.01 0.02 0.02 0.03 0.04 0.04 0.04 0.03 0.03 0.02 0.01 0.02 0.03 0.03 0.03 0.03 0.02 0.03 0.04 0.03 0.03 0.05 0.07 0.05 0.05 0.06
0.00 0.01 0.01 0.02 0.02 0.03 0.02 0.02 0.03 0.05 0.05 0.03 0.02 0.01 0.02 0.03 0.05 0.02 0.02 0.02 0.02 0.02 0.02 0.03 0.03 0.03 0.04 0.04 0.05 0.05 0.03 0.03 0.03 0.03 0.03 0.03 0.03 0.04 0.04 0.04 0.04 0.05 0.05 0.05 0.04 0.04 0.04 0.04 0.04
0.00 0.00 0.01 0.01 0.01 0.02 0.04 0.03 0.03 0.02 0.02 0.03 0.02 0.01 0.02 0.03 0.03 0.02 0.03 0.03 0.04 0.03 0.03 0.05 0.06 0.07 0.06 0.05 0.04 0.04 0.03 0.04 0.05 0.05 0.04 0.03 0.03 0.04 0.03 0.03 0.04 0.05 0.05 0.05 0.05 0.04 0.03 0.02 0.03
0.00 0.00 0.00 0.01 0.01 0.02 0.03 0.03 0.02 0.03 0.03 0.03 0.02 0.02 0.02 0.02 0.02 0.02 0.04 0.04 0.05 0.05 0.04 0.06 0.10 0.10 0.06 0.05 0.05 0.05 0.04 0.05 0.05 0.06 0.04 0.03 0.03 0.04 0.04 0.04 0.04 0.04 0.04 0.04 0.04 0.03 0.02 0.02 0.03
0.00 0.00 0.01 0.02 0.02 0.01 0.02 0.04 0.02 0.02 0.03 0.03 0.02 0.02 0.02 0.01 0.02 0.03 0.05 0.03 0.03 0.03 0.03 0.04 0.08 0.08 0.06 0.07 0.07 0.07 0.06 0.06 0.05 0.03 0.03 0.02 0.03 0.04 0.05 0.03 0.02 0.02 0.01 0.01 0.01 0.01 0.02 0.02 0.02
0.00 0.00 0.01 0.02 0.02 0.01 0.02 0.03 0.03 0.02 0.02 0.02 0.02 0.02 0.02 0.04 0.04 0.02 0.02 0.02 0.03 0.03 0.02 0.02 0.03 0.03 0.05 0.06 0.06 0.07 0.07 0.06 0.04 0.03 0.03 0.04 0.04 0.04 0.04 0.03 0.02 0.01 0.01 0.01 0.01 0.01 0.01 0.01 0.01
0.00 0.00 0.00 0.01 0.01 0.02 0.03 0.04 0.05 0.03 0.02 0.02 0.01 0.02 0.03 0.05 0.06 0.06 0.07 0.07 0.04 0.02 0.01 0.01 0.01 0.02 0.03 0.04 0.05 0.06 0.07 0.07 0.05 0.04 0.03 0.03 0.03 0.03 0.03 0.02 0.01 0.01 0.01 0.01 0.01 0.01 0.01 0.01 0.01
0.00 0.01 0.01 0.00 0.01 0.01 0.03 0.05 0.06 0.05 0.03 0.02 0.03 0.03 0.04 0.05 0.09 0.08 0.08 0.13 0.06 0.02 0.02 0.02 0.02 0.02 0.02 0.03 0.03 0.04 0.06 0.06 0.05 0.04 0.04 0.03 0.03 0.02 0.02 0.02 0.01 0.01 0.01 0.01 0.01 0.01 0.01 0.01 0.01
0.00 0.00 0.00 0.00 0.01 0.01 0.01 0.03 0.03 0.02 0.01 0.02 0.04 0.04 0.03 0.04 0.07 0.11 0.10 0.08 0.03 0.02 0.03 0.04 0.06 0.04 0.02 0.03 0.04 0.04 0.05 0.05 0.04 0.04 0.02 0.02 0.02 0.02 0.02 0.02 0.02 0.02 0.03 0.03 0.02 0.01 0.01 0.01 0.01
0.00 0.00 0.00 0.00 0.00 0.00 0.01 0.02 0.02 0.01 0.01 0.03 0.03 0.02 0.04 0.06 0.05 0.05 0.07 0.05 0.02 0.01 0.02 0.05 0.06 0.03 0.02 0.03 0.03 0.03 0.04 0.04 0.04 0.03 0.03 0.02 0.01 0.01 0.02 0.03 0.03 0.04 0.04 0.03 0.02 0.02 0.02 0.01 0.01
MSLP
1007.95 1008.84 1009.97 1011.14 1012.15 1012.82 1013.09 1012.96 1012.53 1011.97 1011.47 1011.20 1011.24 1011.61 1012.21 1012.92 1013.58 1014.04 1014.24 1014.18 1013.93 1013.60 1013.32 1013.17 1013.21 1013.42 1013.74 1014.08 1014.36 1014.53 1014.58 1014.54 1014.47 1014.44 1014.47 1014.59 1014.77 1014.96 1015.11 1015.17 1015.13 1015.01 1014.83 1014.66 1014.56 1014.55 1014.65 1014.82 1015.04
1008.37 1009.46 1010.69 1011.85 1012.76 1013.26 1013.31 1012.96 1012.33 1011.62 1011.02 1010.69 1010.70 1011.05 1011.65 1012.36 1013.02 1013.51 1013.75 1013.77 1013.61 1013.40 1013.22 1013.17 1013.29 1013.54 1013.88 1014.22 1014.50 1014.68 1014.76 1014.77 1014.76 1014.78 1014.85 1015.00 1015.17 1015.34 1015.46 1015.49 1015.42 1015.28 1015.11 1014.96 1014.88 1014.89 1014.99 1015.16 1015.35
1008.92 1010.14 1011.41 1012.51 1013.26 1013.56 1013.40 1012.85 1012.08 1011.27 1010.62 1010.27 1010.28 1010.63 1011.22 1011.91 1012.55 1013.03 1013.29 1013.36 1013.29 1013.17 1013.11 1013.16 1013.36 1013.66 1014.02 1014.37 1014.66 1014.85 1014.95 1014.99 1015.03 1015.08 1015.19 1015.34 1015.50 1015.64 1015.72 1015.71 1015.62 1015.48 1015.33 1015.21 1015.15 1015.18 1015.28 1015.44 1015.61
1009.57 1010.85 1012.07 1013.04 1013.60 1013.70 1013.34 1012.64 1011.77 1010.92 1010.29 1009.97 1010.01 1010.37 1010.95 1011.60 1012.20 1012.65 1012.91 1013.02 1013.02 1012.99 1013.04 1013.19 1013.46 1013.81 1014.19 1014.54 1014.83 1015.03 1015.14 1015.21 1015.27 1015.35 1015.47 1015.61 1015.76 1015.86 1015.90 1015.87 1015.77 1015.64 1015.51 1015.42 1015.40 1015.45 1015.55 1015.68 1015.81
1010.26 1011.51 1012.61 1013.39 1013.74 1013.62 1013.10 1012.30 1011.40 1010.59 1010.02 1009.78 1009.89 1010.27 1010.84 1011.45 1011.99 1012.40 1012.65 1012.78 1012.84 1012.90 1013.04 1013.28 1013.61 1014.00 1014.39 1014.74 1015.01 1015.19 1015.31 1015.38 1015.46 1015.56 1015.68 1015.83 1015.95 1016.03 1016.04 1015.99 1015.89 1015.78 1015.68 1015.63 1015.64 1015.70 1015.79 1015.89 1015.98
1010.92 1012.05 1012.96 1013.50 1013.61 1013.30 1012.65 1011.81 1010.95 1010.24 1009.80 1009.68 1009.87 1010.30 1010.86 1011.43 1011.92 1012.28 1012.52 1012.66 1012.77 1012.92 1013.14 1013.45 1013.82 1014.23 1014.61 1014.93 1015.17 1015.33 1015.43 1015.51 1015.59 1015.71 1015.84 1015.98 1016.09 1016.16 1016.16 1016.11 1016.02 1015.92 1015.86 1015.84 1015.86 1015.92 1015.99 1016.06 1016.09
1011.47 1012.40 1013.04 1013.32 1013.19 1012.71 1011.98 1011.16 1010.39 1009.83 1009.56 1009.59 1009.90 1010.38 1010.94 1011.48 1011.93 1012.26 1012.48 1012.65 1012.81 1013.02 1013.31 1013.66 1014.07 1014.47 1014.82 1015.09 1015.28 1015.40 1015.48 1015.56 1015.66 1015.78 1015.94 1016.09 1016.21 1016.27 1016.28 1016.22 1016.15 1016.07 1016.02 1016.02 1016.05 1016.10 1016.15 1016.17 1016.16
1011.84 1012.51 1012.86 1012.85 1012.49 1011.87 1011.11 1010.34 1009.72 1009.35 1009.27 1009.47 1009.89 1010.44 1011.02 1011.54 1011.95 1012.26 1012.48 1012.67 1012.89 1013.16 1013.50 1013.89 1014.30 1014.67 1014.97 1015.19 1015.33 1015.40 1015.46 1015.53 1015.64 1015.80 1015.98 1016.15 1016.29 1016.37 1016.38 1016.34 1016.27 1016.21 1016.16 1016.16 1016.18 1016.22 1016.24 1016.22 1016.17
1012.00 1012.37 1012.41 1012.13 1011.58 1010.85 1010.09 1009.42 1008.96 1008.79 1008.90 1009.27 1009.80 1010.41 1011.00 1011.51 1011.91 1012.21 1012.45 1012.68 1012.94 1013.27 1013.65 1014.06 1014.45 1014.79 1015.04 1015.20 1015.28 1015.31 1015.35 1015.43 1015.56 1015.75 1015.97 1016.17 1016.34 1016.44 1016.47 1016.44 1016.38 1016.31 1016.27 1016.26 1016.26 1016.28 1016.27 1016.22 1016.15
1011.95 1012.03 1011.79 1011.27 1010.56 1009.77 1009.04 1008.48 1008.18 1008.20 1008.48 1008.98 1009.61 1010.27 1010.87 1011.37 1011.76 1012.05 1012.32 1012.58 1012.90 1013.27 1013.68 1014.10 1014.48 1014.79 1014.99 1015.10 1015.14 1015.15 1015.18 1015.27 1015.43 1015.66 1015.91 1016.15 1016.35 1016.47 1016.51 1016.49 1016.43 1016.37 1016.32 1016.29 1016.28 1016.28 1016.25 1016.18 1016.09
1011.76 1011.59 1011.11 1010.40 1009.58 1008.76 1008.09 1007.64 1007.49 1007.66 1008.07 1008.67 1009.34 1010.01 1010.60 1011.09 1011.46 1011.77 1012.05 1012.35 1012.71 1013.11 1013.56 1013.99 1014.37 1014.65 1014.83 1014.91 1014.93 1014.94 1014.98 1015.09 1015.27 1015.52 1015.80 1016.07 1016.29 1016.43 1016.49 1016.48 1016.43 1016.37 1016.32 1016.28 1016.26 1016.24 1016.20 1016.13 1016.04
1011.54 1011.17 1010.52 1009.69 1008.80 1007.99 1007.38 1007.03 1007.00 1007.26 1007.75 1008.38 1009.05 1009.70 1010.25 1010.70 1011.05 1011.35 1011.65 1011.98 1012.36 1012.80 1013.27 1013.72 1014.10 1014.39 1014.57 1014.66 1014.70 1014.72 1014.78 1014.90 1015.11 1015.37 1015.66 1015.94 1016.16 1016.32 1016.39 1016.40 1016.35 1016.30 1016.25 1016.22 1016.20 1016.18 1016.15 1016.09 1016.01
1011.41 1010.91 1010.15 1009.26 1008.37 1007.59 1007.04 1006.77 1006.79 1007.09 1007.58 1008.18 1008.80 1009.38 1009.87 1010.26 1010.58 1010.86 1011.16 1011.50 1011.91 1012.37 1012.85 1013.33 1013.73 1014.05 1014.27 1014.40 1014.47 1014.53 1014.62 1014.76 1014.96 1015.21 1015.48 1015.74 1015.95 1016.10 1016.19 1016.21 1016.19 1016.16 1016.13 1016.11 1016.11 1016.11 1016.09 1016.05 1015.99
1011.46 1010.90 1010.10 1009.21 1008.35 1007.62 1007.12 1006.89 1006.92 1007.19 1007.62 1008.13 1008.65 1009.11 1009.51 1009.83 1010.09 1010.35 1010.63 1010.97 1011.39 1011.86 1012.37 1012.86 1013.32 1013.69 1013.97 1014.17 1014.31 1014.42 1014.53 1014.67 1014.84 1015.05 1015.27 1015.48 1015.66 1015.79 1015.88 1015.92 1015.94 1015.95 1015.96 1015.97 1016.00 1016.02 1016.03 1016.02 1015.99
1011.72 1011.14 1010.37 1009.53 1008.72 1008.06 1007.59 1007.36 1007.35 1007.53 1007.83 1008.20 1008.58 1008.91 1009.21 1009.45 1009.66 1009.89 1010.15 1010.48 1010.90 1011.37 1011.89 1012.42 1012.92 1013.37 1013.73 1014.02 1014.23 1014.39 1014.52 1014.64 1014.77 1014.90 1015.03 1015.16 1015.28 1015.39 1015.48 1015.54 1015.61 1015.67 1015.73 1015.80 1015.86 1015.91 1015.96 1015.97 1015.96
1012.14 1011.59 1010.88 1010.11 1009.39 1008.78 1008.33 1008.06 1007.96 1008.01 1008.15 1008.34 1008.55 1008.75 1008.94 1009.11 1009.29 1009.50 1009.76 1010.08 1010.48 1010.96 1011.48 1012.04 1012.60 1013.11 1013.57 1013.95 1014.24 1014.45 1014.59 1014.67 1014.72 1014.75 1014.78 1014.82 1014.86 1014.93 1015.01 1015.11 1015.22 1015.34 1015.46 1015.58 1015.68 1015.77 1015.83 1015.87 1015.88
1012.60 1012.11 1011.49 1010.83 1010.19 1009.64 1009.19 1008.85 1008.63 1008.50 1008.45 1008.45 1008.49 1008.57 1008.67 1008.80 1008.97 1009.18 1009.45 1009.78 1010.18 1010.65 1011.18 1011.76 1012.35 1012.94 1013.47 1013.94 1014.30 1014.55 1014.69 1014.73 1014.70 1014.62 1014.53 1014.46 1014.42 1014.44 1014.52 1014.65 1014.81 1014.99 1015.16 1015.33 1015.46 1015.57 1015.64 1015.69 1015.71
1012.97 1012.55 1012.05 1011.51 1010.98 1010.47 1010.01 1009.59 1009.22 1008.90 1008.63 1008.43 1008.32 1008.28 1008.34 1008.46 1008.66 1008.91 1009.21 1009.57 1009.97 1010.44 1010.97 1011.55 1012.17 1012.80 1013.40 1013.93 1014.35 1014.64 1014.77 1014.77 1014.66 1014.48 1014.28 1014.11 1014.00 1013.98 1014.05 1014.20 1014.41 1014.64 1014.85 1015.05 1015.20 1015.31 1015.38 1015.43 1015.46
1013.12 1012.80 1012.43 1012.04 1011.63 1011.18 1010.70 1010.18 1009.65 1009.11 1008.63 1008.24 1007.97 1007.85 1007.88 1008.03 1008.29 1008.61 1008.99 1009.39 1009.82 1010.28 1010.80 1011.37 1011.99 1012.64 1013.28 1013.85 1014.32 1014.63 1014.77 1014.74 1014.58 1014.32 1014.04 1013.79 1013.63 1013.58 1013.65 1013.83 1014.06 1014.32 1014.57 1014.77 1014.92 1015.01 1015.07 1015.09 1015.11
1012.97 1012.79 1012.60 1012.38 1012.10 1011.73 1011.23 1010.61 1009.90 1009.16 1008.45 1007.86 1007.45 1007.26 1007.28 1007.48 1007.83 1008.26 1008.72 1009.18 1009.64 1010.11 1010.60 1011.14 1011.74 1012.38 1013.02 1013.62 1014.12 1014.47 1014.63 1014.60 1014.42 1014.13 1013.81 1013.53 1013.34 1013.28 1013.35 1013.54 1013.80 1014.07 1014.32 1014.52 1014.64 1014.70 1014.71 1014.71 1014.71
1012.53 1012.53 1012.55 1012.55 1012.44 1012.16 1011.66 1010.94 1010.05 1009.09 1008.15 1007.36 1006.81 1006.53 1006.55 1006.82 1007.26 1007.80 1008.36 1008.89 1009.38 1009.84 1010.30 1010.78 1011.33 1011.93 1012.56 1013.17 1013.70 1014.08 1014.29 1014.30 1014.15 1013.89 1013.59 1013.32 1013.14 1013.09 1013.18 1013.38 1013.64 1013.91 1014.15 1014.30 1014.38 1014.39 1014.35 1014.30 1014.27
1011.87 1012.11 1012.40 1012.65 1012.74 1012.57 1012.07 1011.27 1010.21 1009.02 1007.85 1006.86 1006.15 1005.78 1005.78 1006.09 1006.61 1007.25 1007.90 1008.50 1009.01 1009.45 1009.85 1010.27 1010.73 1011.27 1011.86 1012.46 1013.02 1013.46 1013.73 1013.84 1013.77 1013.59 1013.36 1013.15 1013.02 1013.01 1013.12 1013.34 1013.59 1013.84 1014.04 1014.15 1014.16 1014.11 1014.00 1013.90 1013.83
1011.14 1011.66 1012.26 1012.78 1013.09 1013.04 1012.57 1011.69 1010.47 1009.07 1007.67 1006.46 1005.58 1005.11 1005.07 1005.38 1005.96 1006.66 1007.38 1008.01 1008.53 1008.93 1009.26 1009.58 1009.96 1010.41 1010.95 1011.53 1012.11 1012.61 1012.99 1013.22 1013.28 1013.23 1013.12 1013.02 1012.97 1013.02 1013.16 1013.38 1013.63 1013.85 1014.00 1014.05 1014.00 1013.87 1013.69 1013.52 1013.39
1010.47 1011.29 1012.20 1013.01 1013.53 1013.61 1013.17 1012.23 1010.88 1009.28 1007.67 1006.26 1005.21 1004.61 1004.49 1004.78 1005.37 1006.11 1006.84 1007.48 1007.97 1008.32 1008.57 1008.78 1009.05 1009.41 1009.89 1010.45 1011.05 1011.63 1012.12 1012.49 1012.72 1012.83 1012.88 1012.91 1012.96 1013.08 1013.26 1013.49 1013.72 1013.91 1014.01 1014.00 1013.88 1013.68 1013.43 1013.19 1012.99
1009.95 1011.05 1012.24 1013.30 1014.01 1014.21 1013.82 1012.84 1011.38 1009.63 1007.85 1006.26 1005.05 1004.33 1004.12 1004.36 1004.92 1005.64 1006.37 1006.98 1007.42 1007.70 1007.85 1007.96 1008.11 1008.38 1008.78 1009.32 1009.95 1010.60 1011.21 1011.73 1012.13 1012.42 1012.64 1012.80 1012.97 1013.16 1013.39 1013.62 1013.84 1013.99 1014.05 1013.99 1013.82 1013.55 1013.24 1012.93 1012.66
1009.60 1010.91 1012.32 1013.56 1014.41 1014.71 1014.35 1013.36 1011.84 1010.01 1008.12 1006.41 1005.09 1004.27 1003.98 1004.15 1004.66 1005.33 1006.01 1006.57 1006.95 1007.14 1007.19 1007.20 1007.25 1007.42 1007.77 1008.28 1008.92 1009.63 1010.35 1011.01 1011.58 1012.04 1012.41 1012.72 1012.99 1013.26 1013.52 1013.77 1013.97 1014.10 1014.12 1014.03 1013.81 1013.51 1013.14 1012.77 1012.43
1009.36 1010.79 1012.29 1013.62 1014.55 1014.91 1014.59 1013.61 1012.10 1010.26 1008.34 1006.61 1005.25 1004.38 1004.03 1004.14 1004.59 1005.20 1005.81 1006.30 1006.60 1006.71 1006.68 1006.59 1006.55 1006.66 1006.94 1007.42 1008.07 1008.83 1009.64 1010.41 1011.12 1011.72 1012.23 1012.65 1013.02 1013.34 1013.64 1013.90 1014.10 1014.22 1014.22 1014.11 1013.88 1013.55 1013.16 1012.74 1012.34
1009.14 1010.55 1012.03 1013.34 1014.27 1014.62 1014.34 1013.42 1011.99 1010.23 1008.40 1006.73 1005.42 1004.57 1004.22 1004.29 1004.69 1005.23 1005.77 1006.19 1006.42 1006.46 1006.35 1006.20 1006.10 1006.14 1006.38 1006.83 1007.48 1008.27 1009.13 1009.99 1010.79 1011.50 1012.10 1012.62 1013.05 1013.43 1013.76 1014.03 1014.23 1014.35 1014.37 1014.27 1014.04 1013.72 1013.32 1012.89 1012.45
1008.84 1010.09 1011.42 1012.60 1013.44 1013.77 1013.52 1012.70 1011.41 1009.84 1008.20 1006.71 1005.53 1004.78 1004.48 1004.56 1004.92 1005.41 1005.88 1006.23 1006.39 1006.37 1006.22 1006.03 1005.89 1005.90 1006.10 1006.54 1007.17 1007.97 1008.85 1009.75 1010.60 1011.38 1012.05 1012.62 1013.11 1013.52 1013.87 1014.16 1014.39 1014.53 1014.57 1014.50 1014.32 1014.03 1013.66 1013.23 1012.79
1008.43 1009.41 1010.48 1011.45 1012.14 1012.41 1012.20 1011.52 1010.44 1009.12 1007.76 1006.53 1005.58 1004.99 1004.78 1004.90 1005.24 1005.68 1006.09 1006.37 1006.48 1006.43 1006.25 1006.04 1005.90 1005.89 1006.09 1006.50 1007.12 1007.90 1008.77 1009.67 1010.54 1011.34 1012.05 1012.66 1013.17 1013.62 1014.00 1014.32 1014.57 1014.75 1014.84 1014.82 1014.70 1014.47 1014.15 1013.77 1013.34
Thickness
5828 5828 5825 5814 5792 5771 5768 5787 5802 5807 5810 5820 5823 5815 5803 5793 5781 5771 5793 5799 5796 5792 5789 5788 5786 5785 5783 5781 5779 5778 5777 5776 5774 5773 5772 5771 5770 5769 5768 5768 5767 5767 5766 5766 5765 5764 5763 5763 5762
5828 5827 5818 5801 5775 5754 5767 5792 5801 5809 5817 5825 5822 5816 5804 5796 5800 5796 5796 5797 5797 5793 5791 5789 5787 5785 5783 5781 5779 5778 5776 5775 5774 5772 5771 5770 5769 5768 5767 5766 5766 5765 5765 5764 5763 5762 5762 5761 5761
5829 5826 5804 5786 5771 5761 5773 5797 5806 5817 5826 5826 5817 5814 5805 5797 5802 5800 5802 5800 5797 5794 5791 5789 5787 5785 5783 5781 5779 5777 5776 5774 5773 5772 5770 5769 5768 5767 5766 5765 5764 5763 5763 5762 5761 5761 5760 5760 5760
5823 5811 5797 5777 5772 5784 5793 5803 5813 5816 5820 5824 5817 5804 5807 5814 5811 5808 5806 5802 5797 5794 5792 5789 5787 5785 5783 5781 5779 5777 5775 5774 5772 5771 5770 5768 5767 5766 5765 5764 5763 5762 5762 5761 5760 5760 5759 5759 5759
5817 5797 5777 5767 5777 5795 5807 5815 5818 5814 5813 5815 5813 5797 5798 5813 5817 5812 5807 5803 5798 5794 5791 5789 5787 5785 5783 5781 5778 5777 5775 5774 5772 5771 5769 5768 5766 5765 5764 5763 5762 5761 5761 5760 5760 5759 5759 5759 5759
5801 5787 5763 5759 5777 5799 5811 5821 5820 5813 5811 5812 5809 5797 5796 5812 5812 5809 5808 5803 5800 5795 5792 5789 5787 5785 5783 5780 5778 5776 5775 5773 5772 5770 5769 5767 5766 5765 5764 5763 5762 5761 5760 5760 5759 5759 5758 5758 5758
5794 5778 5766 5771 5776 5790 5808 5821 5816 5811 5810 5813 5815 5796 5796 5806 5811 5811 5808 5803 5799 5795 5792 5789 5787 5785 5782 5780 5778 5776 5775 5773 5771 5770 5769 5767 5766 5764 5763 5762 5761 5760 5759 5759 5758 5758 5758 5757 5757
5805 5783 5773 5773 5777 5785 5811 5819 5822 5819 5815 5825 5821 5798 5793 5807 5813 5810 5805 5800 5796 5793 5791 5789 5787 5784 5782 5780 5778 5776 5774 5772 5771 5770 5768 5766 5765 5764 5762 5761 5760 5759 5759 5758 5757 5757 5757 5756 5756
5811 5776 5764 5776 5783 5793 5813 5813 5820 5829 5823 5822 5824 5817 5817 5817 5813 5805 5798 5794 5791 5790 5789 5788 5786 5784 5782 5780 5778 5776 5774 5772 5770 5769 5768 5766 5764 5763 5762 5761 5760 5759 5758 5757 5756 5756 5755 5755 5754
5796 5769 5780 5798 5803 5805 5812 5814 5817 5815 5809 5809 5812 5818 5820 5815 5807 5800 5795 5790 5788 5787 5787 5787 5785 5783 5781 5780 5777 5775 5773 5771 5769 5768 5767 5765 5764 5763 5762 5760 5759 5759 5758 5756 5756 5755 5754 5753 5752
5797 5786 5799 5808 5815 5816 5814 5816 5819 5806 5798 5805 5807 5809 5811 5809 5804 5799 5796 5794 5792 5790 5788 5786 5785 5783 5781 5779 5777 5774 5772 5770 5768 5767 5766 5765 5763 5762 5761 5759 5759 5758 5757 5755 5755 5753 5752 5752 5751
5797 5802 5809 5812 5819 5817 5815 5817 5813 5810 5810 5822 5822 5819 5812 5806 5802 5800 5797 5795 5794 5791 5789 5788 5786 5783 5781 5779 5776 5773 5771 5769 5767 5766 5765 5764 5762 5760 5759 5758 5757 5756 5756 5755 5754 5752 5751 5750 5749
5795 5800 5811 5817 5819 5820 5820 5814 5811 5809 5820 5824 5822 5817 5810 5806 5804 5803 5802 5798 5795 5792 5791 5789 5786 5783 5781 5778 5775 5773 5771 5768 5767 5766 5764 5763 5761 5759 5758 5757 5756 5756 5755 5754 5752 5751 5749 5749 5748
5799 5803 5807 5812 5815 5818 5813 5810 5807 5806 5817 5815 5813 5809 5809 5806 5803 5801 5798 5795 5793 5792 5791 5789 5787 5784 5781 5778 5775 5772 5770 5768 5766 5765 5764 5762 5760 5758 5757 5755 5755 5754 5754 5753 5751 5749 5748 5747 5746
5803 5794 5795 5803 5809 5812 5809 5795 5801 5809 5812 5807 5806 5806 5805 5803 5802 5800 5800 5797 5795 5793 5792 5789 5787 5784 5781 5777 5775 5772 5770 5768 5765 5764 5763 5761 5760 5758 5756 5754 5753 5753 5752 5751 5750 5748 5747 5746 5745
5790 5779 5770 5791 5803 5808 5795 5773 5799 5811 5806 5800 5802 5802 5800 5799 5801 5801 5801 5798 5796 5794 5791 5789 5788 5783 5779 5776 5774 5772 5769 5767 5765 5763 5762 5760 5758 5757 5755 5752 5752 5752 5751 5750 5748 5746 5744 5742 5741
5763 5755 5761 5777 5799 5800 5789 5777 5798 5808 5804 5797 5798 5798 5797 5795 5796 5799 5801 5800 5797 5794 5790 5787 5785 5782 5779 5776 5774 5771 5768 5765 5763 5761 5760 5758 5756 5755 5753 5751 5749 5749 5748 5747 5746 5744 5742 5739 5738
5747 5753 5758 5765 5787 5791 5781 5781 5796 5803 5803 5797 5796 5795 5794 5793 5794 5799 5800 5799 5797 5793 5790 5786 5783 5780 5778 5775 5771 5767 5764 5763 5761 5759 5757 5756 5754 5752 5751 5748 5747 5746 5745 5743 5742 5740 5739 5737 5735
5763 5757 5755 5767 5787 5782 5776 5778 5788 5796 5796 5794 5792 5790 5791 5792 5796 5798 5799 5797 5794 5790 5787 5784 5780 5777 5775 5770 5766 5762 5759 5758 5757 5757 5755 5754 5752 5750 5748 5746 5745 5743 5741 5739 5739 5737 5735 5733 5732
5762 5753 5754 5766 5783 5780 5772 5773 5785 5792 5793 5794 5792 5790 5790 5790 5790 5792 5792 5792 5790 5787 5784 5781 5779 5776 5773 5769 5765 5762 5759 5756 5755 5754 5753 5751 5750 5748 5747 5744 5742 5741 5738 5736 5735 5733 5730 5729 5729
5758 5753 5755 5758 5772 5776 5769 5760 5770 5785 5792 5794 5793 5792 5791 5790 5787 5787 5787 5787 5785 5783 5782 5781 5778 5775 5772 5768 5764 5760 5756 5753 5750 5749 5748 5748 5747 5746 5744 5742 5740 5738 5736 5733 5731 5729 5726 5723 5723
5750 5770 5768 5765 5753 5744 5755 5731 5756 5769 5776 5784 5786 5787 5788 5789 5788 5786 5785 5784 5784 5783 5782 5779 5776 5773 5769 5765 5761 5756 5750 5746 5746 5745 5745 5744 5744 5743 5741 5739 5737 5735 5733 5730 5728 5726 5724 5721 5717
5764 5779 5772 5766 5752 5741 5745 5731 5742 5761 5763 5773 5781 5785 5787 5789 5787 5785 5783 5783 5783 5781 5779 5776 5772 5769 5766 5763 5759 5754 5749 5747 5745 5743 5741 5740 5740 5740 5739 5737 5735 5732 5730 5727 5725 5723 5721 5719 5716
5778 5770 5761 5748 5735 5720 5736 5728 5731 5750 5763 5771 5779 5784 5785 5786 5786 5784 5783 5782 5779 5777 5774 5771 5768 5765 5764 5760 5756 5752 5748 5745 5741 5739 5737 5736 5735 5735 5735 5734 5731 5729 5727 5725 5722 5720 5718 5716 5714
5766 5737 5714 5711 5702 5710 5736 5730 5735 5764 5776 5777 5778 5780 5783 5784 5782 5780 5777 5775 5774 5772 5770 5767 5765 5762 5761 5757 5753 5750 5746 5743 5739 5736 5734 5732 5730 5730 5729 5729 5727 5725 5724 5722 5720 5717 5715 5713 5711
5757 5741 5711 5700 5697 5709 5730 5726 5745 5771 5779 5781 5781 5780 5780 5779 5779 5777 5775 5773 5772 5769 5767 5764 5760 5758 5756 5753 5750 5747 5744 5741 5738 5735 5733 5731 5729 5728 5727 5725 5723 5722 5720 5718 5716 5714 5711 5710 5707
5754 5741 5740 5718 5713 5707 5714 5732 5750 5766 5769 5772 5773 5773 5773 5774 5774 5773 5771 5768 5767 5765 5763 5760 5756 5753 5751 5749 5746 5743 5740 5737 5735 5733 5731 5729 5727 5726 5724 5721 5719 5718 5716 5714 5712 5709 5707 5705 5703
5766 5753 5727 5711 5697 5694 5709 5720 5726 5747 5755 5762 5763 5764 5767 5769 5769 5768 5766 5763 5762 5762 5760 5758 5755 5751 5747 5745 5742 5739 5736 5734 5732 5730 5728 5726 5724 5722 5720 5718 5716 5714 5711 5709 5707 5704 5703 5700 5698
5751 5745 5729 5711 5706 5694 5691 5709 5749 5751 5756 5757 5759 5762 5763 5764 5765 5764 5761 5760 5758 5757 5755 5752 5749 5745 5743 5740 5738 5734 5732 5731 5729 5726 5725 5723 5720 5719 5716 5713 5711 5709 5707 5704 5702 5699 5697 5694 5692
5754 5744 5727 5708 5704 5701 5694 5711 5758 5757 5757 5758 5757 5758 5760 5760 5761 5760 5757 5754 5752 5750 5748 5745 5743 5740 5737 5736 5733 5730 5728 5726 5724 5722 5720 5719 5717 5715 5712 5709 5707 5705 5702 5699 5696 5694 5692 5690 5687